EAG5512 MMMX-SCEL

Flight info

Callsign EAG5512
Flight time 7h 7m
Altitude 34000
Route TEVOS2A TEVOS UT116 ACA/N0491F330 UL344 POGAM UL401 UKABO/N0487F350 UL401 ILVOS/N0475F370 UL401 VTN DCT UGOLA SIMOK7B
Aircraft A343/H-SDE2E3FGHIJ4J5M1RWXY/LB1D1

Departure

Time 2026-05-05 16:49
Airport Mexico City Benito Juárez International Airport (MMMX)

Arrival

Time 2026-05-05 23:56
Airport Comodoro Arturo Merino Benítez International Airport (SCEL)
Time Latitude Longitude Altitude Speed Heading
2026-05-05 16:23 19.42298 -99.08091 7307 ft 0 kts 166°
2026-05-05 16:40 19.42300 -99.08092 7307 ft 2 kts 166°
2026-05-05 16:40 19.42325 -99.08099 7307 ft 4 kts 166°
2026-05-05 16:41 19.42352 -99.08106 7309 ft 4 kts 166°
2026-05-05 16:41 19.42374 -99.08112 7307 ft 4 kts 156°
2026-05-05 16:41 19.42396 -99.08127 7307 ft 4 kts 133°
2026-05-05 16:41 19.42413 -99.08149 7307 ft 4 kts 133°
2026-05-05 16:42 19.42423 -99.08162 7307 ft 4 kts 218°
2026-05-05 16:42 19.42423 -99.08164 7307 ft 0 kts 238°
2026-05-05 16:44 19.42417 -99.08176 7307 ft 2 kts 248°
2026-05-05 16:44 19.42418 -99.08184 7309 ft 0 kts 271°
2026-05-05 16:44 19.42421 -99.08193 7307 ft 3 kts 286°
2026-05-05 16:44 19.42433 -99.08220 7309 ft 7 kts 299°
2026-05-05 16:45 19.42471 -99.08257 7307 ft 10 kts 326°
2026-05-05 16:45 19.42540 -99.08293 7307 ft 11 kts 336°
2026-05-05 16:45 19.42603 -99.08327 7309 ft 10 kts 330°
2026-05-05 16:45 19.42658 -99.08362 7307 ft 9 kts 330°
2026-05-05 16:46 19.42679 -99.08374 7307 ft 0 kts 331°
2026-05-05 16:47 19.42683 -99.08376 7307 ft 4 kts 331°
2026-05-05 16:47 19.42740 -99.08407 7309 ft 11 kts 335°
2026-05-05 16:47 19.42788 -99.08405 7307 ft 6 kts 29°
2026-05-05 16:47 19.42828 -99.08353 7309 ft 14 kts 57°
2026-05-05 16:48 19.42908 -99.08213 7309 ft 37 kts 59°
2026-05-05 16:48 19.43147 -99.07787 7308 ft 96 kts 59°
2026-05-05 16:48 19.43579 -99.07018 7306 ft 145 kts 59°
2026-05-05 16:48 19.44170 -99.05964 7310 ft 186 kts 59°
2026-05-05 16:49 19.44842 -99.04775 7806 ft 190 kts 58°
2026-05-05 16:49 19.45558 -99.03580 8448 ft 194 kts 56°
2026-05-05 16:49 19.46346 -99.02328 8749 ft 212 kts 57°
2026-05-05 16:49 19.47176 -99.00969 9017 ft 228 kts 57°
2026-05-05 16:50 19.47990 -98.99477 9268 ft 241 kts 65°
2026-05-05 16:50 19.48269 -98.97665 9452 ft 264 kts 99°
2026-05-05 16:50 19.47489 -98.95887 9933 ft 272 kts 132°
2026-05-05 16:50 19.46140 -98.94456 10614 ft 275 kts 138°
2026-05-05 16:51 19.44719 -98.93092 11311 ft 277 kts 138°
2026-05-05 16:51 19.43276 -98.91704 11971 ft 281 kts 138°
2026-05-05 16:51 19.41848 -98.90317 12663 ft 283 kts 137°
2026-05-05 16:51 19.40398 -98.88900 13373 ft 285 kts 137°
2026-05-05 16:52 19.38935 -98.87465 14042 ft 288 kts 137°
2026-05-05 16:52 19.37447 -98.86003 14636 ft 294 kts 136°
2026-05-05 16:52 19.35944 -98.84523 15297 ft 296 kts 136°
2026-05-05 16:52 19.34401 -98.83074 15938 ft 298 kts 141°
2026-05-05 16:53 19.32540 -98.82106 16570 ft 303 kts 165°
2026-05-05 16:53 19.30400 -98.81931 16954 ft 316 kts 180°
2026-05-05 16:53 19.28161 -98.82067 17269 ft 328 kts 181°
2026-05-05 16:53 19.25840 -98.82237 17541 ft 341 kts 181°
2026-05-05 16:54 19.23424 -98.82402 17804 ft 354 kts 181°
2026-05-05 16:54 19.21780 -98.82509 17977 ft 362 kts 181°
2026-05-05 16:54 19.19222 -98.82669 18241 ft 374 kts 180°
2026-05-05 16:54 19.16577 -98.82833 18497 ft 387 kts 181°
2026-05-05 16:55 19.13849 -98.83000 18747 ft 399 kts 181°
2026-05-05 16:55 19.11040 -98.83167 18982 ft 410 kts 181°
2026-05-05 16:55 19.08158 -98.83337 19236 ft 420 kts 181°
2026-05-05 16:55 19.05216 -98.83511 19619 ft 426 kts 181°
2026-05-05 16:56 19.02238 -98.83688 20036 ft 430 kts 181°
2026-05-05 16:56 18.99232 -98.83866 20442 ft 435 kts 181°
2026-05-05 16:56 18.96197 -98.84047 20852 ft 439 kts 181°
2026-05-05 16:56 18.93139 -98.84339 21248 ft 443 kts 186°
2026-05-05 16:57 18.90077 -98.84800 21645 ft 447 kts 187°
2026-05-05 16:57 18.86997 -98.85294 22034 ft 450 kts 187°
2026-05-05 16:57 18.83887 -98.85795 22422 ft 453 kts 187°
2026-05-05 16:57 18.80793 -98.86293 22783 ft 456 kts 187°
2026-05-05 16:58 18.77648 -98.86797 23142 ft 460 kts 187°
2026-05-05 16:58 18.74471 -98.87300 23490 ft 463 kts 186°
2026-05-05 16:58 18.71249 -98.87507 23845 ft 464 kts 177°
2026-05-05 16:58 18.68047 -98.87088 24187 ft 465 kts 166°
2026-05-05 16:59 18.64901 -98.86265 24526 ft 467 kts 163°
2026-05-05 16:59 18.61791 -98.85268 24888 ft 468 kts 161°
2026-05-05 16:59 18.58694 -98.84179 25257 ft 469 kts 160°
2026-05-05 16:59 18.55596 -98.83058 25610 ft 471 kts 160°
2026-05-05 17:00 18.52484 -98.81930 25956 ft 473 kts 160°
2026-05-05 17:00 18.49354 -98.80811 26314 ft 475 kts 160°
2026-05-05 17:00 18.46216 -98.79704 26658 ft 477 kts 160°
2026-05-05 17:00 18.43058 -98.78601 27011 ft 479 kts 161°
2026-05-05 17:01 18.39928 -98.77515 27348 ft 480 kts 161°
2026-05-05 17:01 18.36746 -98.76414 27688 ft 482 kts 161°
2026-05-05 17:01 18.33547 -98.75310 28014 ft 484 kts 161°
2026-05-05 17:01 18.30344 -98.74204 28330 ft 486 kts 161°
2026-05-05 17:02 18.27127 -98.73093 28653 ft 487 kts 161°
2026-05-05 17:02 18.23896 -98.71977 28972 ft 489 kts 161°
2026-05-05 17:02 18.20655 -98.70857 29253 ft 490 kts 161°
2026-05-05 17:02 18.17417 -98.69738 29561 ft 491 kts 161°
2026-05-05 17:03 18.14175 -98.68618 29964 ft 489 kts 161°
2026-05-05 17:03 18.10935 -98.67500 30385 ft 488 kts 161°
2026-05-05 17:03 18.07715 -98.66390 30763 ft 486 kts 161°
2026-05-05 17:03 18.04547 -98.65297 31101 ft 485 kts 161°
2026-05-05 17:04 18.01343 -98.64192 31439 ft 484 kts 161°
2026-05-05 17:04 17.98145 -98.63090 31777 ft 483 kts 161°
2026-05-05 17:04 17.94949 -98.61988 32119 ft 482 kts 161°
2026-05-05 17:04 17.91750 -98.60886 32403 ft 482 kts 161°
2026-05-05 17:05 17.88558 -98.59788 32684 ft 482 kts 161°
2026-05-05 17:05 17.85402 -98.58702 32972 ft 481 kts 161°
2026-05-05 17:05 17.82224 -98.57610 33291 ft 480 kts 161°
2026-05-05 17:05 17.79054 -98.56520 33559 ft 480 kts 161°
2026-05-05 17:06 17.75874 -98.55427 33800 ft 480 kts 161°
2026-05-05 17:06 17.72703 -98.54336 34067 ft 479 kts 161°
2026-05-05 17:06 17.69527 -98.53245 34196 ft 482 kts 161°
2026-05-05 17:06 17.66326 -98.52146 34197 ft 487 kts 161°
2026-05-05 17:07 17.59820 -98.49914 34195 ft 497 kts 161°
2026-05-05 17:07 17.53243 -98.47659 34184 ft 497 kts 161°
2026-05-05 17:08 17.46672 -98.45409 34184 ft 496 kts 161°
2026-05-05 17:09 17.32926 -98.40706 34173 ft 496 kts 161°
2026-05-05 17:09 17.26358 -98.38460 34165 ft 496 kts 161°
2026-05-05 17:10 17.19822 -98.36230 34165 ft 496 kts 161°
2026-05-05 17:10 17.13250 -98.33985 34134 ft 496 kts 161°
2026-05-05 17:11 17.06689 -98.31747 34096 ft 496 kts 161°
2026-05-05 17:11 17.00120 -98.29509 34096 ft 496 kts 161°
2026-05-05 17:12 16.93545 -98.27268 34092 ft 497 kts 161°
2026-05-05 17:12 16.87016 -98.25047 34091 ft 497 kts 161°
2026-05-05 17:13 16.80445 -98.22811 34088 ft 497 kts 161°
2026-05-05 17:13 16.73870 -98.20578 34085 ft 497 kts 161°
2026-05-05 17:14 16.67284 -98.18343 34060 ft 497 kts 161°
2026-05-05 17:14 16.60698 -98.16106 34054 ft 498 kts 161°
2026-05-05 17:15 16.54139 -98.13882 34054 ft 498 kts 161°
2026-05-05 17:15 16.47549 -98.11651 34055 ft 498 kts 161°
2026-05-05 17:16 16.42060 -98.09793 34051 ft 498 kts 161°
2026-05-05 17:16 16.35468 -98.07559 34046 ft 498 kts 161°
2026-05-05 17:17 16.28867 -98.05328 34045 ft 499 kts 161°
2026-05-05 17:17 16.22266 -98.03100 34047 ft 499 kts 161°
2026-05-05 17:18 16.15661 -98.00871 34048 ft 499 kts 161°
2026-05-05 17:18 16.09083 -97.98651 34047 ft 499 kts 161°
2026-05-05 17:19 16.02479 -97.96424 34045 ft 499 kts 161°
2026-05-05 17:19 15.95869 -97.94197 34031 ft 499 kts 161°
2026-05-05 17:20 15.89268 -97.91974 34034 ft 499 kts 161°
2026-05-05 17:20 15.82662 -97.89751 34029 ft 499 kts 161°
2026-05-05 17:21 15.76065 -97.87533 34009 ft 499 kts 161°
2026-05-05 17:22 15.66138 -97.84198 34009 ft 499 kts 161°
2026-05-05 17:22 15.59561 -97.81990 34007 ft 499 kts 161°
2026-05-05 17:23 15.52943 -97.79771 34007 ft 500 kts 161°
2026-05-05 17:23 15.46323 -97.77551 34009 ft 500 kts 161°
2026-05-05 17:24 15.39688 -97.75328 34006 ft 500 kts 161°
2026-05-05 17:24 15.33069 -97.73113 34008 ft 500 kts 161°
2026-05-05 17:25 15.26434 -97.70893 34008 ft 500 kts 161°
2026-05-05 17:25 15.19845 -97.68691 34008 ft 501 kts 161°
2026-05-05 17:26 15.13212 -97.66474 34007 ft 501 kts 162°
2026-05-05 17:26 15.06574 -97.64257 34008 ft 501 kts 162°
2026-05-05 17:27 14.99916 -97.62036 34008 ft 501 kts 162°
2026-05-05 17:27 14.93274 -97.59821 34008 ft 502 kts 162°
2026-05-05 17:28 14.86672 -97.57621 34008 ft 502 kts 162°
2026-05-05 17:28 14.80032 -97.55410 34009 ft 501 kts 162°
2026-05-05 17:29 14.73385 -97.53199 34006 ft 502 kts 162°
2026-05-05 17:29 14.66737 -97.50988 34008 ft 502 kts 162°
2026-05-05 17:30 14.60084 -97.48777 34008 ft 502 kts 162°
2026-05-05 17:30 14.53415 -97.46561 34008 ft 502 kts 162°
2026-05-05 17:31 14.46766 -97.44354 34008 ft 501 kts 162°
2026-05-05 17:31 14.40165 -97.42165 34008 ft 501 kts 162°
2026-05-05 17:32 14.33524 -97.39962 34008 ft 501 kts 162°
2026-05-05 17:32 14.26876 -97.37761 34008 ft 502 kts 162°
2026-05-05 17:33 14.20225 -97.35560 34008 ft 501 kts 162°
2026-05-05 17:33 14.13578 -97.33360 34008 ft 501 kts 162°
2026-05-05 17:34 14.06939 -97.31162 34007 ft 501 kts 162°
2026-05-05 17:34 14.00289 -97.28965 34008 ft 502 kts 162°
2026-05-05 17:35 13.93675 -97.26781 34008 ft 501 kts 162°
2026-05-05 17:35 13.87036 -97.24587 34008 ft 501 kts 162°
2026-05-05 17:36 13.80389 -97.22394 34008 ft 501 kts 162°
2026-05-05 17:36 13.73878 -97.19855 34004 ft 501 kts 152°
2026-05-05 17:37 13.68063 -97.15902 34007 ft 502 kts 143°
2026-05-05 17:37 13.62615 -97.11401 34000 ft 503 kts 140°
2026-05-05 17:38 13.57261 -97.06849 33997 ft 503 kts 141°
2026-05-05 17:38 13.51839 -97.02307 33999 ft 503 kts 141°
2026-05-05 17:39 13.46395 -96.97804 33999 ft 502 kts 141°
2026-05-05 17:39 13.40945 -96.93310 33997 ft 503 kts 141°
2026-05-05 17:40 13.35478 -96.88799 34261 ft 503 kts 141°
2026-05-05 17:40 13.32752 -96.86551 34449 ft 503 kts 141°
2026-05-05 17:40 13.30028 -96.84306 34668 ft 502 kts 141°
2026-05-05 17:40 13.27304 -96.82060 34872 ft 502 kts 141°
2026-05-05 17:41 13.24586 -96.79820 35064 ft 501 kts 141°
2026-05-05 17:41 13.21862 -96.77576 35278 ft 500 kts 141°
2026-05-05 17:41 13.19149 -96.75342 35444 ft 500 kts 141°
2026-05-05 17:41 13.16430 -96.73103 35604 ft 500 kts 141°
2026-05-05 17:42 13.13709 -96.70865 35760 ft 500 kts 141°
2026-05-05 17:42 13.11029 -96.68661 35914 ft 499 kts 141°
2026-05-05 17:42 13.08323 -96.66435 36064 ft 499 kts 141°
2026-05-05 17:42 13.05610 -96.64204 36180 ft 498 kts 141°
2026-05-05 17:43 13.02903 -96.61978 36340 ft 498 kts 141°
2026-05-05 17:43 13.00200 -96.59757 36490 ft 498 kts 141°
2026-05-05 17:43 12.97492 -96.57532 36638 ft 497 kts 141°
2026-05-05 17:44 12.92105 -96.53108 36702 ft 494 kts 141°
2026-05-05 17:44 12.86777 -96.48735 36663 ft 489 kts 141°
2026-05-05 17:45 12.81504 -96.44412 36705 ft 488 kts 141°
2026-05-05 17:45 12.76197 -96.40061 36835 ft 488 kts 141°
2026-05-05 17:46 12.70891 -96.35713 36975 ft 488 kts 141°
2026-05-05 17:46 12.65586 -96.31367 36979 ft 487 kts 141°
2026-05-05 17:47 12.60327 -96.27067 36981 ft 486 kts 141°
2026-05-05 17:47 12.55045 -96.22747 36963 ft 486 kts 141°
2026-05-05 17:48 12.49765 -96.18428 36962 ft 486 kts 141°
2026-05-05 17:48 12.44487 -96.14112 36961 ft 485 kts 141°
2026-05-05 17:49 12.39205 -96.09799 36962 ft 485 kts 141°
2026-05-05 17:49 12.33932 -96.05496 36962 ft 485 kts 141°
2026-05-05 17:50 12.28656 -96.01192 36961 ft 484 kts 141°
2026-05-05 17:50 12.23386 -95.96895 36962 ft 485 kts 141°
2026-05-05 17:51 12.18137 -95.92616 36962 ft 485 kts 141°
2026-05-05 17:51 12.12854 -95.88314 36962 ft 485 kts 141°
2026-05-05 17:52 12.07582 -95.84021 36962 ft 485 kts 141°
2026-05-05 17:52 12.02302 -95.79725 36962 ft 485 kts 141°
2026-05-05 17:53 11.97021 -95.75433 36962 ft 485 kts 141°
2026-05-05 17:53 11.91770 -95.71163 36962 ft 485 kts 141°
2026-05-05 17:54 11.86494 -95.66876 36961 ft 485 kts 141°
2026-05-05 17:54 11.81209 -95.62584 36962 ft 485 kts 141°
2026-05-05 17:55 11.75927 -95.58297 36962 ft 485 kts 141°
2026-05-05 17:55 11.70641 -95.54010 36962 ft 485 kts 141°
2026-05-05 17:56 11.65392 -95.49757 36962 ft 485 kts 141°
2026-05-05 17:56 11.60116 -95.45480 36962 ft 485 kts 142°
2026-05-05 17:57 11.54824 -95.41191 36962 ft 485 kts 142°
2026-05-05 17:57 11.49544 -95.36917 36962 ft 485 kts 142°
2026-05-05 17:58 11.44254 -95.32637 36962 ft 485 kts 142°
2026-05-05 17:58 11.38972 -95.28365 36962 ft 485 kts 142°
2026-05-05 17:59 11.33680 -95.24087 36962 ft 485 kts 142°
2026-05-05 17:59 11.28395 -95.19817 36962 ft 485 kts 142°
2026-05-05 18:00 11.23147 -95.15579 36962 ft 485 kts 142°
2026-05-05 18:00 11.17859 -95.11311 36962 ft 485 kts 142°
2026-05-05 18:01 11.12564 -95.07040 36962 ft 485 kts 142°
2026-05-05 18:01 11.07271 -95.02769 36962 ft 485 kts 142°
2026-05-05 18:02 11.01986 -94.98508 36962 ft 485 kts 142°
2026-05-05 18:02 10.97581 -94.94960 36962 ft 485 kts 142°
2026-05-05 18:03 10.91439 -94.90012 36962 ft 484 kts 142°
2026-05-05 18:03 10.87013 -94.86448 36962 ft 485 kts 142°
2026-05-05 18:04 10.80867 -94.81505 36944 ft 485 kts 142°
2026-05-05 18:04 10.76437 -94.77943 36943 ft 485 kts 142°
2026-05-05 18:05 10.71146 -94.73690 36942 ft 485 kts 142°
2026-05-05 18:05 10.65886 -94.69464 36962 ft 485 kts 142°
2026-05-05 18:06 10.60588 -94.65212 36962 ft 485 kts 142°
2026-05-05 18:06 10.55302 -94.60967 36962 ft 484 kts 142°
2026-05-05 18:07 10.50016 -94.56724 36962 ft 484 kts 142°
2026-05-05 18:07 10.44734 -94.52488 36962 ft 484 kts 142°
2026-05-05 18:08 10.39456 -94.48257 36962 ft 483 kts 142°
2026-05-05 18:08 10.34172 -94.44023 36962 ft 484 kts 142°
2026-05-05 18:09 10.28887 -94.39787 36962 ft 484 kts 142°
2026-05-05 18:09 10.23630 -94.35579 36962 ft 484 kts 142°
2026-05-05 18:10 10.18340 -94.31346 36962 ft 484 kts 142°
2026-05-05 18:10 10.13063 -94.27125 36962 ft 483 kts 142°
2026-05-05 18:11 10.07773 -94.22895 36961 ft 483 kts 142°
2026-05-05 18:11 10.02497 -94.18677 36953 ft 483 kts 142°
2026-05-05 18:12 9.97252 -94.14489 36953 ft 483 kts 142°
2026-05-05 18:12 9.91973 -94.10274 36952 ft 483 kts 142°
2026-05-05 18:13 9.86694 -94.06060 36953 ft 483 kts 142°
2026-05-05 18:13 9.81406 -94.01840 36953 ft 483 kts 142°
2026-05-05 18:14 9.76083 -93.97695 36951 ft 483 kts 147°
2026-05-05 18:14 9.70204 -93.94397 36952 ft 483 kts 153°
2026-05-05 18:15 9.64174 -93.91368 36953 ft 483 kts 154°
2026-05-05 18:15 9.58162 -93.88409 36953 ft 483 kts 154°
2026-05-05 18:16 9.52115 -93.85422 36952 ft 483 kts 154°
2026-05-05 18:16 9.46076 -93.82422 36948 ft 484 kts 154°
2026-05-05 18:17 9.40033 -93.79417 36944 ft 484 kts 154°
2026-05-05 18:17 9.33993 -93.76414 36943 ft 483 kts 154°
2026-05-05 18:18 9.27948 -93.73412 36943 ft 484 kts 154°
2026-05-05 18:18 9.21911 -93.70416 36943 ft 483 kts 154°
2026-05-05 18:19 9.15911 -93.67438 36943 ft 483 kts 154°
2026-05-05 18:19 9.09873 -93.64445 36944 ft 484 kts 154°
2026-05-05 18:20 9.03826 -93.61446 36943 ft 484 kts 154°
2026-05-05 18:20 8.97784 -93.58450 36943 ft 483 kts 154°
2026-05-05 18:21 8.91744 -93.55457 36943 ft 483 kts 154°
2026-05-05 18:21 8.85707 -93.52469 36943 ft 483 kts 154°
2026-05-05 18:22 8.79665 -93.49479 36944 ft 483 kts 154°
2026-05-05 18:22 8.73632 -93.46493 36953 ft 483 kts 154°
2026-05-05 18:23 8.67600 -93.43510 36953 ft 483 kts 154°
2026-05-05 18:23 8.61560 -93.40522 36952 ft 483 kts 154°
2026-05-05 18:24 8.55556 -93.37554 36953 ft 483 kts 154°
2026-05-05 18:24 8.49515 -93.34568 36952 ft 483 kts 154°
2026-05-05 18:25 8.43470 -93.31580 36952 ft 483 kts 154°
2026-05-05 18:25 8.37428 -93.28596 36953 ft 483 kts 154°
2026-05-05 18:26 8.31392 -93.25616 36953 ft 483 kts 154°
2026-05-05 18:26 8.25394 -93.22656 36952 ft 483 kts 154°
2026-05-05 18:27 8.19357 -93.19677 36953 ft 483 kts 154°
2026-05-05 18:27 8.13311 -93.16696 36953 ft 483 kts 154°
2026-05-05 18:28 8.04241 -93.12225 36952 ft 483 kts 154°
2026-05-05 18:28 7.98231 -93.09262 36953 ft 484 kts 154°
2026-05-05 18:29 7.92187 -93.06284 36952 ft 483 kts 154°
2026-05-05 18:29 7.86141 -93.03308 36953 ft 483 kts 154°
2026-05-05 18:30 7.80093 -93.00332 36953 ft 483 kts 154°
2026-05-05 18:30 7.74053 -92.97358 36952 ft 483 kts 154°
2026-05-05 18:31 7.68010 -92.94385 36944 ft 483 kts 154°
2026-05-05 18:31 7.61966 -92.91412 36943 ft 483 kts 154°
2026-05-05 18:32 7.55925 -92.88442 36943 ft 483 kts 154°
2026-05-05 18:32 7.49924 -92.85493 36943 ft 483 kts 154°
2026-05-05 18:33 7.43884 -92.82526 36944 ft 483 kts 154°
2026-05-05 18:33 7.37839 -92.79557 36943 ft 483 kts 154°
2026-05-05 18:34 7.31792 -92.76587 36944 ft 483 kts 154°
2026-05-05 18:34 7.25751 -92.73621 36944 ft 483 kts 154°
2026-05-05 18:35 7.19711 -92.70656 36943 ft 482 kts 154°
2026-05-05 18:35 7.13679 -92.67697 36944 ft 482 kts 154°
2026-05-05 18:36 7.07640 -92.64736 36943 ft 482 kts 154°
2026-05-05 18:36 7.01650 -92.61798 36944 ft 482 kts 154°
2026-05-05 18:37 6.95615 -92.58840 36943 ft 481 kts 154°
2026-05-05 18:37 6.89584 -92.55886 36944 ft 481 kts 154°
2026-05-05 18:38 6.83569 -92.52938 36943 ft 481 kts 154°
2026-05-05 18:38 6.77586 -92.50008 36943 ft 481 kts 154°
2026-05-05 18:39 6.71575 -92.47066 36943 ft 481 kts 154°
2026-05-05 18:39 6.65557 -92.44119 36943 ft 480 kts 153°
2026-05-05 18:40 6.59546 -92.41176 36944 ft 480 kts 153°
2026-05-05 18:40 6.53543 -92.38239 36943 ft 479 kts 153°
2026-05-05 18:41 6.47546 -92.35307 36944 ft 479 kts 153°
2026-05-05 18:41 6.41586 -92.32392 36946 ft 478 kts 153°
2026-05-05 18:42 6.35599 -92.29466 36953 ft 478 kts 153°
2026-05-05 18:42 6.29615 -92.26544 36953 ft 478 kts 153°
2026-05-05 18:43 6.23634 -92.23621 36952 ft 478 kts 153°
2026-05-05 18:43 6.17652 -92.20699 36952 ft 477 kts 153°
2026-05-05 18:44 6.11666 -92.17775 36953 ft 477 kts 153°
2026-05-05 18:44 6.05725 -92.14873 36952 ft 478 kts 153°
2026-05-05 18:45 5.99742 -92.11954 36953 ft 478 kts 153°
2026-05-05 18:45 5.93761 -92.09037 36953 ft 477 kts 153°
2026-05-05 18:46 5.87777 -92.06115 36953 ft 478 kts 153°
2026-05-05 18:46 5.81800 -92.03200 36953 ft 478 kts 153°
2026-05-05 18:47 5.75856 -92.00302 36953 ft 478 kts 153°
2026-05-05 18:47 5.69870 -91.97383 36952 ft 478 kts 153°
2026-05-05 18:48 5.63887 -91.94467 36953 ft 478 kts 153°
2026-05-05 18:48 5.57898 -91.91549 36952 ft 478 kts 153°
2026-05-05 18:49 5.51924 -91.88640 36953 ft 478 kts 153°
2026-05-05 18:49 5.45931 -91.85723 36953 ft 478 kts 153°
2026-05-05 18:50 5.39966 -91.82817 36953 ft 479 kts 153°
2026-05-05 18:50 5.33975 -91.79899 36952 ft 479 kts 153°
2026-05-05 18:51 5.28985 -91.77471 36953 ft 479 kts 153°
2026-05-05 18:51 5.21976 -91.74060 36953 ft 479 kts 153°
2026-05-05 18:52 5.16980 -91.71629 36953 ft 479 kts 153°
2026-05-05 18:52 5.10978 -91.68708 36952 ft 480 kts 153°
2026-05-05 18:53 5.04967 -91.65784 36953 ft 480 kts 153°
2026-05-05 18:53 4.98994 -91.62880 36952 ft 480 kts 153°
2026-05-05 18:54 4.92984 -91.59959 36952 ft 480 kts 153°
2026-05-05 18:54 4.86968 -91.57035 36953 ft 480 kts 153°
2026-05-05 18:55 4.80959 -91.54115 36952 ft 480 kts 153°
2026-05-05 18:55 4.74945 -91.51193 36953 ft 480 kts 153°
2026-05-05 18:56 4.68926 -91.48269 36953 ft 480 kts 153°
2026-05-05 18:56 4.62911 -91.45347 36953 ft 480 kts 153°
2026-05-05 18:57 4.56900 -91.42428 36952 ft 480 kts 153°
2026-05-05 18:57 4.50921 -91.39527 36953 ft 480 kts 153°
2026-05-05 18:58 4.44897 -91.36604 36952 ft 480 kts 153°
2026-05-05 18:58 4.38881 -91.33684 36952 ft 480 kts 153°
2026-05-05 18:59 4.32866 -91.30767 36952 ft 480 kts 153°
2026-05-05 18:59 4.26863 -91.27854 36953 ft 480 kts 153°
2026-05-05 19:00 4.20852 -91.24939 36953 ft 479 kts 153°
2026-05-05 19:00 4.14873 -91.22038 36952 ft 480 kts 153°
2026-05-05 19:01 4.08865 -91.19122 36960 ft 480 kts 153°
2026-05-05 19:01 4.02848 -91.16205 36962 ft 480 kts 153°
2026-05-05 19:02 3.96834 -91.13290 36962 ft 480 kts 153°
2026-05-05 19:02 3.90810 -91.10372 36961 ft 480 kts 153°
2026-05-05 19:03 3.84807 -91.07424 36962 ft 480 kts 152°
2026-05-05 19:03 3.78828 -91.04444 36941 ft 480 kts 152°
2026-05-05 19:04 3.72837 -91.01464 36933 ft 481 kts 153°
2026-05-05 19:04 3.66838 -90.98488 36935 ft 481 kts 153°
2026-05-05 19:05 3.60851 -90.95521 36935 ft 481 kts 153°
2026-05-05 19:05 3.54888 -90.92569 36933 ft 481 kts 153°
2026-05-05 19:06 3.48897 -90.89602 36933 ft 481 kts 153°
2026-05-05 19:06 3.42892 -90.86628 36934 ft 481 kts 153°
2026-05-05 19:07 3.36888 -90.83655 36933 ft 481 kts 153°
2026-05-05 19:07 3.30883 -90.80680 36933 ft 481 kts 153°
2026-05-05 19:08 3.24919 -90.77727 36933 ft 481 kts 153°
2026-05-05 19:08 3.18904 -90.74751 36935 ft 482 kts 153°
2026-05-05 19:09 3.12899 -90.71780 36934 ft 481 kts 153°
2026-05-05 19:09 3.06893 -90.68806 36933 ft 481 kts 153°
2026-05-05 19:10 3.00887 -90.65835 36933 ft 482 kts 153°
2026-05-05 19:10 2.94879 -90.62861 36933 ft 482 kts 153°
2026-05-05 19:11 2.88854 -90.59883 36933 ft 482 kts 153°
2026-05-05 19:11 2.82880 -90.56930 36935 ft 482 kts 153°
2026-05-05 19:12 2.76871 -90.53958 36933 ft 482 kts 153°
2026-05-05 19:12 2.70866 -90.50989 36933 ft 482 kts 153°
2026-05-05 19:13 2.64853 -90.48016 36934 ft 482 kts 153°
2026-05-05 19:13 2.58834 -90.45042 36933 ft 482 kts 153°
2026-05-05 19:14 2.52818 -90.42068 36933 ft 483 kts 153°
2026-05-05 19:14 2.46795 -90.39091 36933 ft 482 kts 153°
2026-05-05 19:15 2.40778 -90.36117 36935 ft 483 kts 153°
2026-05-05 19:15 2.34744 -90.33136 36934 ft 483 kts 153°
2026-05-05 19:16 2.28718 -90.30158 36934 ft 483 kts 153°
2026-05-05 19:16 2.22685 -90.27177 36934 ft 483 kts 153°
2026-05-05 19:17 2.16698 -90.24219 36911 ft 483 kts 153°
2026-05-05 19:17 2.10668 -90.21239 36916 ft 483 kts 152°
2026-05-05 19:18 2.04646 -90.18264 36920 ft 483 kts 153°
2026-05-05 19:18 1.98616 -90.15286 36912 ft 483 kts 153°
2026-05-05 19:19 1.92588 -90.12310 36923 ft 483 kts 153°
2026-05-05 19:19 1.86605 -90.09356 36908 ft 483 kts 153°
2026-05-05 19:20 1.80574 -90.06379 36909 ft 483 kts 153°
2026-05-05 19:20 1.74551 -90.03403 36911 ft 483 kts 153°
2026-05-05 19:21 1.68516 -90.00425 36910 ft 484 kts 153°
2026-05-05 19:21 1.62486 -89.97449 36922 ft 483 kts 153°
2026-05-05 19:22 1.56445 -89.94467 36921 ft 484 kts 153°
2026-05-05 19:22 1.50402 -89.91483 36917 ft 484 kts 153°
2026-05-05 19:23 1.44390 -89.88516 36907 ft 484 kts 153°
2026-05-05 19:23 1.38332 -89.85549 36911 ft 485 kts 153°
2026-05-05 19:24 1.32227 -89.82648 36910 ft 485 kts 154°
2026-05-05 19:24 1.26115 -89.79751 36911 ft 486 kts 154°
2026-05-05 19:25 1.20043 -89.76864 36919 ft 486 kts 154°
2026-05-05 19:25 1.13924 -89.73949 36926 ft 487 kts 154°
2026-05-05 19:26 1.07803 -89.71033 36912 ft 487 kts 154°
2026-05-05 19:26 1.01683 -89.68117 36909 ft 487 kts 154°
2026-05-05 19:27 0.95552 -89.65195 36924 ft 488 kts 154°
2026-05-05 19:27 0.89418 -89.62273 36910 ft 489 kts 154°
2026-05-05 19:28 0.83276 -89.59346 36909 ft 489 kts 154°
2026-05-05 19:28 0.77134 -89.56419 36913 ft 489 kts 154°
2026-05-05 19:29 0.71018 -89.53506 36935 ft 489 kts 154°
2026-05-05 19:29 0.64868 -89.50576 36934 ft 490 kts 154°
2026-05-05 19:30 0.58705 -89.47640 36934 ft 490 kts 154°
2026-05-05 19:30 0.52551 -89.44708 36935 ft 490 kts 154°
2026-05-05 19:31 0.46387 -89.41775 36935 ft 490 kts 155°
2026-05-05 19:31 0.40224 -89.38838 36943 ft 491 kts 154°
2026-05-05 19:32 0.34056 -89.35898 36944 ft 491 kts 154°
2026-05-05 19:32 0.27894 -89.32963 36943 ft 490 kts 155°
2026-05-05 19:33 0.21736 -89.30031 36937 ft 491 kts 155°
2026-05-05 19:33 0.15614 -89.27115 36895 ft 491 kts 154°
2026-05-05 19:34 0.09459 -89.24181 36884 ft 490 kts 154°
2026-05-05 19:35 0.00206 -89.19772 36890 ft 491 kts 154°
2026-05-05 19:35 -0.05966 -89.16832 36888 ft 491 kts 155°
2026-05-05 19:36 -0.12143 -89.13891 36890 ft 491 kts 155°
2026-05-05 19:36 -0.18280 -89.10967 36890 ft 491 kts 155°
2026-05-05 19:37 -0.24447 -89.08027 36884 ft 491 kts 155°
2026-05-05 19:37 -0.30628 -89.05084 36886 ft 492 kts 155°
2026-05-05 19:38 -0.36801 -89.02144 36888 ft 491 kts 154°
2026-05-05 19:38 -0.42968 -88.99207 36886 ft 491 kts 154°
2026-05-05 19:39 -0.49139 -88.96269 36887 ft 491 kts 154°
2026-05-05 19:39 -0.54272 -88.93823 36904 ft 491 kts 154°
2026-05-05 19:40 -0.60436 -88.90886 36902 ft 491 kts 154°
2026-05-05 19:40 -0.66606 -88.87947 36904 ft 491 kts 154°
2026-05-05 19:41 -0.72779 -88.85006 36904 ft 491 kts 154°
2026-05-05 19:41 -0.78949 -88.82065 36891 ft 491 kts 154°
2026-05-05 19:42 -0.85123 -88.79124 36894 ft 491 kts 154°
2026-05-05 19:42 -0.91249 -88.76204 36890 ft 491 kts 154°
2026-05-05 19:43 -0.97419 -88.73265 36893 ft 491 kts 154°
2026-05-05 19:43 -1.03591 -88.70324 36891 ft 491 kts 154°
2026-05-05 19:44 -1.09750 -88.67389 36890 ft 491 kts 154°
2026-05-05 19:44 -1.15922 -88.64448 36891 ft 491 kts 154°
2026-05-05 19:45 -1.22101 -88.61504 36889 ft 491 kts 154°
2026-05-05 19:45 -1.28273 -88.58562 36890 ft 491 kts 154°
2026-05-05 19:46 -1.34427 -88.55628 36886 ft 491 kts 154°
2026-05-05 19:46 -1.40614 -88.52678 36891 ft 492 kts 154°
2026-05-05 19:47 -1.46762 -88.49749 36891 ft 491 kts 154°
2026-05-05 19:47 -1.52937 -88.46806 36887 ft 491 kts 154°
2026-05-05 19:48 -1.59120 -88.43858 36885 ft 492 kts 154°
2026-05-05 19:48 -1.65305 -88.40910 36883 ft 492 kts 154°
2026-05-05 19:49 -1.71439 -88.37984 36890 ft 492 kts 154°
2026-05-05 19:49 -1.77618 -88.35038 36891 ft 492 kts 154°
2026-05-05 19:50 -1.83790 -88.32097 36886 ft 492 kts 154°
2026-05-05 19:50 -1.89978 -88.29142 36889 ft 492 kts 154°
2026-05-05 19:51 -1.96159 -88.26195 36889 ft 492 kts 154°
2026-05-05 19:51 -2.02338 -88.23246 36886 ft 492 kts 153°
2026-05-05 19:52 -2.08526 -88.20294 36884 ft 492 kts 154°
2026-05-05 19:52 -2.14710 -88.17345 36887 ft 492 kts 154°
2026-05-05 19:53 -2.20890 -88.14397 36888 ft 492 kts 154°
2026-05-05 19:53 -2.27037 -88.11464 36887 ft 492 kts 154°
2026-05-05 19:54 -2.33216 -88.08517 36888 ft 493 kts 154°
2026-05-05 19:54 -2.39408 -88.05561 36882 ft 492 kts 154°
2026-05-05 19:55 -2.45588 -88.02612 36888 ft 492 kts 154°
2026-05-05 19:55 -2.51772 -87.99661 36890 ft 492 kts 154°
2026-05-05 19:56 -2.57927 -87.96724 36891 ft 492 kts 154°
2026-05-05 19:56 -2.64111 -87.93769 36891 ft 492 kts 154°
2026-05-05 19:57 -2.70290 -87.90815 36885 ft 492 kts 154°
2026-05-05 19:57 -2.76481 -87.87859 36885 ft 492 kts 154°
2026-05-05 19:58 -2.82664 -87.84907 36884 ft 492 kts 154°
2026-05-05 19:58 -2.88850 -87.81952 36889 ft 493 kts 154°
2026-05-05 19:59 -2.95044 -87.78994 36886 ft 493 kts 154°
2026-05-05 19:59 -3.01190 -87.76059 36891 ft 493 kts 155°
2026-05-05 20:00 -3.07389 -87.73097 36886 ft 493 kts 155°
2026-05-05 20:00 -3.13578 -87.70139 36892 ft 493 kts 155°
2026-05-05 20:01 -3.19774 -87.67177 36886 ft 493 kts 155°
2026-05-05 20:01 -3.25974 -87.64212 36890 ft 494 kts 155°
2026-05-05 20:02 -3.32138 -87.61266 36889 ft 494 kts 155°
2026-05-05 20:02 -3.38349 -87.58296 36888 ft 494 kts 155°
2026-05-05 20:03 -3.44567 -87.55337 36888 ft 494 kts 155°
2026-05-05 20:03 -3.50792 -87.52406 36886 ft 494 kts 155°
2026-05-05 20:04 -3.57008 -87.49476 36886 ft 494 kts 155°
2026-05-05 20:04 -3.63188 -87.46559 36891 ft 494 kts 155°
2026-05-05 20:05 -3.69411 -87.43620 36887 ft 494 kts 155°
2026-05-05 20:05 -3.75635 -87.40679 36891 ft 494 kts 155°
2026-05-05 20:06 -3.81856 -87.37742 36887 ft 494 kts 155°
2026-05-05 20:06 -3.88091 -87.34796 36887 ft 494 kts 155°
2026-05-05 20:07 -3.94263 -87.31878 36888 ft 494 kts 155°
2026-05-05 20:07 -4.00485 -87.28936 36891 ft 494 kts 155°
2026-05-05 20:08 -4.06701 -87.25997 36883 ft 495 kts 155°
2026-05-05 20:08 -4.12931 -87.23051 36889 ft 495 kts 155°
2026-05-05 20:09 -4.19159 -87.20105 36889 ft 495 kts 155°
2026-05-05 20:09 -4.25358 -87.17174 36884 ft 495 kts 155°
2026-05-05 20:10 -4.31588 -87.14226 36888 ft 495 kts 155°
2026-05-05 20:10 -4.37821 -87.11277 36895 ft 495 kts 155°
2026-05-05 20:11 -4.44048 -87.08330 36889 ft 495 kts 155°
2026-05-05 20:11 -4.50275 -87.05382 36891 ft 495 kts 155°
2026-05-05 20:12 -4.56508 -87.02431 36891 ft 495 kts 155°
2026-05-05 20:12 -4.62736 -86.99483 36884 ft 495 kts 155°
2026-05-05 20:13 -4.68971 -86.96529 36880 ft 495 kts 155°
2026-05-05 20:13 -4.75205 -86.93578 36875 ft 495 kts 155°
2026-05-05 20:14 -4.81437 -86.90625 36869 ft 495 kts 155°
2026-05-05 20:14 -4.87667 -86.87672 36870 ft 495 kts 155°
2026-05-05 20:15 -4.93903 -86.84715 36870 ft 495 kts 155°
2026-05-05 20:15 -5.00093 -86.81780 36869 ft 495 kts 155°
2026-05-05 20:16 -5.06330 -86.78823 36869 ft 496 kts 155°
2026-05-05 20:16 -5.12580 -86.75860 36869 ft 496 kts 155°
2026-05-05 20:17 -5.18816 -86.72902 36869 ft 495 kts 155°
2026-05-05 20:17 -5.25049 -86.69944 36870 ft 495 kts 155°
2026-05-05 20:18 -5.31283 -86.66985 36869 ft 495 kts 155°
2026-05-05 20:18 -5.37468 -86.64049 36869 ft 495 kts 155°
2026-05-05 20:19 -5.43694 -86.61090 36869 ft 495 kts 155°
2026-05-05 20:19 -5.49929 -86.58129 36869 ft 495 kts 155°
2026-05-05 20:20 -5.56161 -86.55170 36869 ft 495 kts 155°
2026-05-05 20:20 -5.62356 -86.52227 36869 ft 495 kts 155°
2026-05-05 20:21 -5.68572 -86.49273 36870 ft 494 kts 155°
2026-05-05 20:21 -5.74800 -86.46311 36869 ft 494 kts 155°
2026-05-05 20:22 -5.81012 -86.43356 36869 ft 494 kts 155°
2026-05-05 20:22 -5.87227 -86.40400 36870 ft 494 kts 155°
2026-05-05 20:23 -5.93396 -86.37466 36869 ft 494 kts 155°
2026-05-05 20:23 -5.99604 -86.34512 36870 ft 493 kts 155°
2026-05-05 20:24 -6.05807 -86.31560 36868 ft 494 kts 155°
2026-05-05 20:24 -6.12032 -86.28598 36869 ft 494 kts 155°
2026-05-05 20:25 -6.18240 -86.25641 36870 ft 494 kts 155°
2026-05-05 20:25 -6.24462 -86.22676 36869 ft 494 kts 155°
2026-05-05 20:26 -6.30643 -86.19729 36869 ft 494 kts 155°
2026-05-05 20:26 -6.36858 -86.16767 36869 ft 494 kts 155°
2026-05-05 20:27 -6.43074 -86.13806 36870 ft 494 kts 155°
2026-05-05 20:27 -6.48247 -86.11338 36869 ft 495 kts 155°
2026-05-05 20:28 -6.54475 -86.08367 36869 ft 495 kts 155°
2026-05-05 20:28 -6.60710 -86.05394 36870 ft 496 kts 155°
2026-05-05 20:29 -6.66944 -86.02419 36869 ft 496 kts 155°
2026-05-05 20:29 -6.73190 -85.99436 36869 ft 497 kts 155°
2026-05-05 20:30 -6.79406 -85.96467 36869 ft 497 kts 155°
2026-05-05 20:30 -6.85654 -85.93483 36869 ft 498 kts 155°
2026-05-05 20:31 -6.91909 -85.90494 36876 ft 498 kts 155°
2026-05-05 20:31 -6.98179 -85.87498 36880 ft 499 kts 155°
2026-05-05 20:32 -7.04463 -85.84495 36880 ft 499 kts 155°
2026-05-05 20:32 -7.10755 -85.81486 36880 ft 501 kts 155°
2026-05-05 20:33 -7.17060 -85.78470 36873 ft 501 kts 155°
2026-05-05 20:33 -7.23356 -85.75457 36879 ft 501 kts 155°
2026-05-05 20:34 -7.29626 -85.72456 36880 ft 502 kts 155°
2026-05-05 20:34 -7.35957 -85.69425 36880 ft 503 kts 155°
2026-05-05 20:35 -7.42271 -85.66401 36880 ft 502 kts 155°
2026-05-05 20:35 -7.48587 -85.63375 36880 ft 503 kts 155°
2026-05-05 20:36 -7.54913 -85.60345 36880 ft 503 kts 155°
2026-05-05 20:36 -7.61235 -85.57311 36878 ft 503 kts 156°
2026-05-05 20:37 -7.67539 -85.54287 36880 ft 504 kts 156°
2026-05-05 20:37 -7.73877 -85.51248 36875 ft 504 kts 156°
2026-05-05 20:38 -7.80216 -85.48207 36877 ft 504 kts 156°
2026-05-05 20:38 -7.86562 -85.45160 36881 ft 504 kts 155°
2026-05-05 20:39 -7.92896 -85.42117 36889 ft 504 kts 155°
2026-05-05 20:39 -7.99200 -85.39089 36883 ft 504 kts 155°
2026-05-05 20:40 -8.05537 -85.36044 36884 ft 505 kts 156°
2026-05-05 20:40 -8.11898 -85.32986 36888 ft 507 kts 156°
2026-05-05 20:41 -8.18265 -85.29925 36887 ft 507 kts 156°
2026-05-05 20:41 -8.24633 -85.26861 36886 ft 507 kts 156°
2026-05-05 20:42 -8.30991 -85.23799 36889 ft 507 kts 156°
2026-05-05 20:42 -8.37364 -85.20732 36886 ft 507 kts 156°
2026-05-05 20:43 -8.43742 -85.17662 36888 ft 507 kts 156°
2026-05-05 20:43 -8.50128 -85.14590 36888 ft 508 kts 156°
2026-05-05 20:44 -8.56460 -85.11538 36886 ft 508 kts 156°
2026-05-05 20:44 -8.62852 -85.08453 36886 ft 509 kts 156°
2026-05-05 20:45 -8.72440 -85.03830 36870 ft 509 kts 156°
2026-05-05 20:45 -8.78833 -85.00743 36870 ft 510 kts 156°
2026-05-05 20:46 -8.85238 -84.97651 36869 ft 510 kts 156°
2026-05-05 20:46 -8.91616 -84.94571 36869 ft 511 kts 156°
2026-05-05 20:47 -8.98022 -84.91475 36869 ft 511 kts 156°
2026-05-05 20:47 -9.04439 -84.88373 36869 ft 511 kts 156°
2026-05-05 20:48 -9.10859 -84.85269 36870 ft 512 kts 156°
2026-05-05 20:48 -9.17288 -84.82159 36869 ft 512 kts 156°
2026-05-05 20:49 -9.23714 -84.79049 36869 ft 512 kts 156°
2026-05-05 20:49 -9.30151 -84.75935 36903 ft 512 kts 156°
2026-05-05 20:50 -9.36552 -84.72835 36949 ft 513 kts 156°
2026-05-05 20:50 -9.42995 -84.69712 36986 ft 513 kts 156°
2026-05-05 20:51 -9.49437 -84.66589 36958 ft 513 kts 156°
2026-05-05 20:51 -9.55883 -84.63464 36909 ft 514 kts 156°
2026-05-05 20:52 -9.62346 -84.60329 36884 ft 514 kts 156°
2026-05-05 20:52 -9.68806 -84.57193 36880 ft 515 kts 156°
2026-05-05 20:53 -9.75280 -84.54050 36880 ft 515 kts 156°
2026-05-05 20:53 -9.81715 -84.50925 36880 ft 516 kts 156°
2026-05-05 20:54 -9.88197 -84.47775 36877 ft 516 kts 156°
2026-05-05 20:54 -9.94679 -84.44623 36880 ft 516 kts 156°
2026-05-05 20:55 -10.01156 -84.41473 36879 ft 516 kts 156°
2026-05-05 20:55 -10.07650 -84.38314 36880 ft 518 kts 156°
2026-05-05 20:56 -10.14116 -84.35165 36878 ft 518 kts 156°
2026-05-05 20:56 -10.20619 -84.31995 36875 ft 518 kts 156°
2026-05-05 20:57 -10.27113 -84.28831 36880 ft 518 kts 156°
2026-05-05 20:57 -10.33614 -84.25662 36880 ft 518 kts 156°
2026-05-05 20:58 -10.40118 -84.22490 36880 ft 518 kts 156°
2026-05-05 20:58 -10.46584 -84.19336 36895 ft 518 kts 156°
2026-05-05 20:59 -10.53088 -84.16160 36897 ft 519 kts 156°
2026-05-05 20:59 -10.59591 -84.12982 36902 ft 519 kts 156°
2026-05-05 21:00 -10.66105 -84.09798 36895 ft 519 kts 156°
2026-05-05 21:00 -10.72624 -84.06612 36893 ft 519 kts 156°
2026-05-05 21:01 -10.79142 -84.03423 36900 ft 520 kts 156°
2026-05-05 21:01 -10.85669 -84.00227 36903 ft 521 kts 156°
2026-05-05 21:02 -10.92206 -83.97027 36892 ft 521 kts 156°
2026-05-05 21:02 -10.98700 -83.93846 36903 ft 521 kts 156°
2026-05-05 21:03 -11.05239 -83.90641 36892 ft 522 kts 156°
2026-05-05 21:03 -11.11778 -83.87435 36897 ft 522 kts 156°
2026-05-05 21:04 -11.18340 -83.84215 36898 ft 523 kts 156°
2026-05-05 21:04 -11.24862 -83.81013 36890 ft 522 kts 156°
2026-05-05 21:05 -11.31415 -83.77796 36899 ft 523 kts 156°
2026-05-05 21:05 -11.37982 -83.74569 36897 ft 523 kts 156°
2026-05-05 21:06 -11.44556 -83.71338 36892 ft 524 kts 156°
2026-05-05 21:06 -11.51123 -83.68107 36895 ft 524 kts 156°
2026-05-05 21:07 -11.57697 -83.64870 36893 ft 524 kts 156°
2026-05-05 21:07 -11.64244 -83.61645 36903 ft 524 kts 156°
2026-05-05 21:08 -11.70820 -83.58407 36894 ft 525 kts 156°
2026-05-05 21:08 -11.77407 -83.55163 36897 ft 525 kts 156°
2026-05-05 21:09 -11.83987 -83.51917 36903 ft 525 kts 156°
2026-05-05 21:09 -11.90568 -83.48669 36896 ft 525 kts 156°
2026-05-05 21:10 -11.97103 -83.45443 36897 ft 525 kts 156°
2026-05-05 21:10 -12.03687 -83.42191 36901 ft 525 kts 156°
2026-05-05 21:11 -12.10284 -83.38930 36903 ft 526 kts 156°
2026-05-05 21:11 -12.16889 -83.35665 36895 ft 527 kts 156°
2026-05-05 21:12 -12.23436 -83.32425 36903 ft 526 kts 156°
2026-05-05 21:12 -12.30034 -83.29157 36891 ft 527 kts 156°
2026-05-05 21:13 -12.36638 -83.25886 36901 ft 527 kts 156°
2026-05-05 21:13 -12.43243 -83.22614 36900 ft 527 kts 156°
2026-05-05 21:14 -12.48740 -83.19889 36903 ft 527 kts 156°
2026-05-05 21:14 -12.56414 -83.16081 36901 ft 527 kts 156°
2026-05-05 21:15 -12.63022 -83.12801 36899 ft 528 kts 156°
2026-05-05 21:15 -12.68518 -83.10069 36894 ft 528 kts 156°
2026-05-05 21:16 -12.75135 -83.06781 36901 ft 528 kts 156°
2026-05-05 21:16 -12.81742 -83.03496 36894 ft 528 kts 156°
2026-05-05 21:17 -12.88359 -83.00204 36897 ft 528 kts 156°
2026-05-05 21:17 -12.94969 -82.96913 36896 ft 528 kts 156°
2026-05-05 21:18 -13.01590 -82.93615 36903 ft 528 kts 156°
2026-05-05 21:18 -13.08202 -82.90318 36903 ft 528 kts 156°
2026-05-05 21:19 -13.14782 -82.87036 36910 ft 529 kts 156°
2026-05-05 21:19 -13.21404 -82.83732 36907 ft 529 kts 156°
2026-05-05 21:20 -13.28024 -82.80426 36903 ft 529 kts 156°
2026-05-05 21:20 -13.34639 -82.77121 36908 ft 530 kts 156°
2026-05-05 21:21 -13.41269 -82.73805 36907 ft 530 kts 156°
2026-05-05 21:21 -13.47899 -82.70487 36906 ft 529 kts 156°
2026-05-05 21:22 -13.54522 -82.67172 36906 ft 530 kts 156°
2026-05-05 21:22 -13.61117 -82.63871 36904 ft 530 kts 155°
2026-05-05 21:23 -13.67742 -82.60550 36898 ft 530 kts 155°
2026-05-05 21:23 -13.74377 -82.57226 36913 ft 530 kts 155°
2026-05-05 21:24 -13.80993 -82.53905 36924 ft 530 kts 155°
2026-05-05 21:24 -13.87636 -82.50567 36936 ft 530 kts 155°
2026-05-05 21:25 -13.94259 -82.47237 36978 ft 530 kts 155°
2026-05-05 21:25 -14.00892 -82.43900 36990 ft 530 kts 155°
2026-05-05 21:26 -14.07519 -82.40565 36990 ft 531 kts 155°
2026-05-05 21:26 -14.14125 -82.37240 36990 ft 531 kts 155°
2026-05-05 21:27 -14.20768 -82.33895 36990 ft 531 kts 155°
2026-05-05 21:27 -14.27411 -82.30546 36993 ft 531 kts 155°
2026-05-05 21:28 -14.34040 -82.27201 36999 ft 531 kts 155°
2026-05-05 21:28 -14.40676 -82.23851 36999 ft 531 kts 155°
2026-05-05 21:29 -14.47316 -82.20498 36999 ft 531 kts 155°
2026-05-05 21:29 -14.53908 -82.17167 36998 ft 531 kts 155°
2026-05-05 21:30 -14.60556 -82.13807 37000 ft 531 kts 155°
2026-05-05 21:30 -14.67200 -82.10441 36998 ft 532 kts 155°
2026-05-05 21:31 -14.73845 -82.07075 36999 ft 532 kts 155°
2026-05-05 21:31 -14.80501 -82.03702 36999 ft 533 kts 155°
2026-05-05 21:32 -14.87174 -82.00320 36999 ft 534 kts 155°
2026-05-05 21:32 -14.93836 -81.96937 36999 ft 533 kts 155°
2026-05-05 21:33 -15.00492 -81.93554 36999 ft 533 kts 155°
2026-05-05 21:33 -15.07145 -81.90174 37006 ft 533 kts 155°
2026-05-05 21:34 -15.13764 -81.86809 37008 ft 534 kts 155°
2026-05-05 21:34 -15.20430 -81.83415 37008 ft 534 kts 155°
2026-05-05 21:35 -15.27104 -81.80015 37008 ft 534 kts 155°
2026-05-05 21:35 -15.33779 -81.76613 37008 ft 535 kts 155°
2026-05-05 21:36 -15.40462 -81.73204 37008 ft 535 kts 155°
2026-05-05 21:36 -15.47147 -81.69791 37008 ft 535 kts 155°
2026-05-05 21:37 -15.53836 -81.66375 37008 ft 536 kts 155°
2026-05-05 21:37 -15.60534 -81.62953 37008 ft 536 kts 155°
2026-05-05 21:38 -15.67192 -81.59548 37008 ft 536 kts 155°
2026-05-05 21:38 -15.73884 -81.56122 37008 ft 536 kts 155°
2026-05-05 21:39 -15.80585 -81.52689 37008 ft 536 kts 155°
2026-05-05 21:39 -15.87276 -81.49259 37008 ft 536 kts 155°
2026-05-05 21:40 -15.93968 -81.45825 37008 ft 536 kts 155°
2026-05-05 21:40 -16.00663 -81.42386 37017 ft 536 kts 155°
2026-05-05 21:41 -16.07371 -81.38942 37018 ft 538 kts 155°
2026-05-05 21:41 -16.14083 -81.35492 37017 ft 538 kts 155°
2026-05-05 21:42 -16.20759 -81.32054 37018 ft 538 kts 155°
2026-05-05 21:42 -16.27475 -81.28595 37018 ft 538 kts 155°
2026-05-05 21:43 -16.34193 -81.25135 37017 ft 538 kts 155°
2026-05-05 21:43 -16.40916 -81.21667 37008 ft 539 kts 155°
2026-05-05 21:44 -16.47628 -81.18200 37008 ft 538 kts 155°
2026-05-05 21:44 -16.54354 -81.14725 37008 ft 539 kts 155°
2026-05-05 21:45 -16.61036 -81.11271 36999 ft 539 kts 155°
2026-05-05 21:45 -16.67759 -81.07793 36955 ft 539 kts 155°
2026-05-05 21:46 -16.74474 -81.04317 36923 ft 538 kts 155°
2026-05-05 21:46 -16.81190 -81.00836 36915 ft 539 kts 155°
2026-05-05 21:47 -16.87925 -80.97343 36921 ft 539 kts 155°
2026-05-05 21:47 -16.94608 -80.93874 36907 ft 539 kts 155°
2026-05-05 21:48 -17.01333 -80.90381 36910 ft 539 kts 155°
2026-05-05 21:48 -17.08056 -80.86884 36918 ft 539 kts 155°
2026-05-05 21:49 -17.14774 -80.83389 36916 ft 539 kts 155°
2026-05-05 21:49 -17.21504 -80.79885 36916 ft 539 kts 155°
2026-05-05 21:50 -17.28190 -80.76402 36921 ft 540 kts 155°
2026-05-05 21:50 -17.34914 -80.72894 36915 ft 540 kts 155°
2026-05-05 21:51 -17.41655 -80.69374 36918 ft 541 kts 155°
2026-05-05 21:51 -17.48398 -80.65852 36923 ft 540 kts 155°
2026-05-05 21:52 -17.58481 -80.60577 36915 ft 540 kts 155°
2026-05-05 21:53 -17.65213 -80.57055 36916 ft 540 kts 155°
2026-05-05 21:53 -17.71942 -80.53531 36915 ft 540 kts 155°
2026-05-05 21:54 -17.78621 -80.50027 36915 ft 540 kts 155°
2026-05-05 21:54 -17.85345 -80.46498 36920 ft 540 kts 155°
2026-05-05 21:55 -17.92068 -80.42967 36924 ft 540 kts 155°
2026-05-05 21:55 -17.98795 -80.39430 36928 ft 540 kts 155°
2026-05-05 21:56 -18.05519 -80.35891 36929 ft 541 kts 155°
2026-05-05 21:56 -18.12251 -80.32346 36927 ft 541 kts 155°
2026-05-05 21:57 -18.18986 -80.28795 36925 ft 541 kts 155°
2026-05-05 21:57 -18.25723 -80.25241 36919 ft 541 kts 155°
2026-05-05 21:58 -18.32453 -80.21688 36928 ft 541 kts 155°
2026-05-05 21:58 -18.39139 -80.18155 36918 ft 541 kts 155°
2026-05-05 21:59 -18.45865 -80.14590 36927 ft 541 kts 155°
2026-05-05 21:59 -18.52594 -80.11017 36927 ft 541 kts 155°
2026-05-05 22:00 -18.59330 -80.07439 36929 ft 542 kts 155°
2026-05-05 22:00 -18.66071 -80.03856 36914 ft 543 kts 155°
2026-05-05 22:01 -18.71675 -80.00876 36920 ft 543 kts 155°
2026-05-05 22:01 -18.78432 -79.97280 36910 ft 543 kts 155°
2026-05-05 22:02 -18.86274 -79.93105 36919 ft 543 kts 155°
2026-05-05 22:02 -18.91923 -79.90093 36914 ft 543 kts 155°
2026-05-05 22:03 -18.98642 -79.86507 36923 ft 544 kts 155°
2026-05-05 22:03 -19.05402 -79.82896 36914 ft 544 kts 155°
2026-05-05 22:04 -19.12169 -79.79277 36929 ft 545 kts 155°
2026-05-05 22:04 -19.18930 -79.75659 36934 ft 545 kts 155°
2026-05-05 22:05 -19.25717 -79.72023 36935 ft 546 kts 155°
2026-05-05 22:05 -19.32509 -79.68384 36934 ft 547 kts 155°
2026-05-05 22:06 -19.39296 -79.64741 36933 ft 547 kts 155°
2026-05-05 22:06 -19.46053 -79.61102 36933 ft 547 kts 155°
2026-05-05 22:07 -19.52852 -79.57440 36933 ft 548 kts 155°
2026-05-05 22:07 -19.59659 -79.53784 36933 ft 549 kts 155°
2026-05-05 22:08 -19.66469 -79.50122 36935 ft 549 kts 155°
2026-05-05 22:08 -19.73283 -79.46450 36933 ft 549 kts 155°
2026-05-05 22:09 -19.80053 -79.42795 36935 ft 549 kts 155°
2026-05-05 22:09 -19.86861 -79.39120 36934 ft 549 kts 155°
2026-05-05 22:10 -19.93663 -79.35438 36934 ft 549 kts 155°
2026-05-05 22:10 -20.00475 -79.31749 36934 ft 549 kts 155°
2026-05-05 22:11 -20.07303 -79.28051 36934 ft 551 kts 155°
2026-05-05 22:11 -20.14134 -79.24347 36934 ft 552 kts 155°
2026-05-05 22:12 -20.20969 -79.20637 36935 ft 551 kts 155°
2026-05-05 22:12 -20.27805 -79.16922 36935 ft 551 kts 155°
2026-05-05 22:13 -20.34642 -79.13201 36934 ft 550 kts 155°
2026-05-05 22:13 -20.41423 -79.09510 36935 ft 551 kts 155°
2026-05-05 22:14 -20.48257 -79.05786 36935 ft 550 kts 155°
2026-05-05 22:14 -20.55074 -79.02066 36934 ft 551 kts 155°
2026-05-05 22:15 -20.61893 -78.98342 36934 ft 551 kts 155°
2026-05-05 22:15 -20.68726 -78.94606 36928 ft 551 kts 155°
2026-05-05 22:16 -20.75558 -78.90864 36929 ft 551 kts 155°
2026-05-05 22:16 -20.82343 -78.87146 36928 ft 551 kts 155°
2026-05-05 22:17 -20.89167 -78.83406 36928 ft 551 kts 155°
2026-05-05 22:17 -20.95992 -78.79660 36927 ft 551 kts 155°
2026-05-05 22:18 -21.02826 -78.75905 36929 ft 552 kts 155°
2026-05-05 22:18 -21.09659 -78.72147 36929 ft 552 kts 155°
2026-05-05 22:19 -21.16490 -78.68385 36928 ft 552 kts 156°
2026-05-05 22:19 -21.23279 -78.64642 36929 ft 552 kts 156°
2026-05-05 22:20 -21.30108 -78.60872 36929 ft 552 kts 156°
2026-05-05 22:20 -21.36936 -78.57102 36928 ft 552 kts 156°
2026-05-05 22:21 -21.43772 -78.53322 36927 ft 552 kts 156°
2026-05-05 22:21 -21.50618 -78.49533 36927 ft 552 kts 156°
2026-05-05 22:22 -21.57450 -78.45748 36935 ft 552 kts 156°
2026-05-05 22:22 -21.64242 -78.41980 36934 ft 552 kts 156°
2026-05-05 22:23 -21.71075 -78.38185 36935 ft 553 kts 156°
2026-05-05 22:23 -21.77929 -78.34375 36934 ft 553 kts 156°
2026-05-05 22:24 -21.84763 -78.30570 36934 ft 553 kts 156°
2026-05-05 22:24 -21.91561 -78.26783 36933 ft 554 kts 156°
2026-05-05 22:25 -21.98403 -78.22966 36934 ft 553 kts 156°
2026-05-05 22:25 -22.05245 -78.19146 36934 ft 553 kts 156°
2026-05-05 22:26 -22.12079 -78.15326 36934 ft 553 kts 156°
2026-05-05 22:26 -22.18922 -78.11497 36935 ft 553 kts 156°
2026-05-05 22:27 -22.25766 -78.07662 36943 ft 553 kts 156°
2026-05-05 22:27 -22.32573 -78.03847 36944 ft 554 kts 156°
2026-05-05 22:28 -22.39410 -78.00008 36943 ft 554 kts 156°
2026-05-05 22:28 -22.46247 -77.96162 36943 ft 554 kts 156°
2026-05-05 22:29 -22.53075 -77.92321 36944 ft 553 kts 156°
2026-05-05 22:29 -22.59912 -77.88468 36943 ft 553 kts 156°
2026-05-05 22:30 -22.66713 -77.84633 36944 ft 554 kts 156°
2026-05-05 22:30 -22.73545 -77.80775 36943 ft 554 kts 156°
2026-05-05 22:31 -22.80381 -77.76911 36944 ft 554 kts 156°
2026-05-05 22:31 -22.87222 -77.73042 36943 ft 555 kts 156°
2026-05-05 22:32 -22.94069 -77.69164 36943 ft 555 kts 156°
2026-05-05 22:32 -23.00922 -77.65277 36944 ft 555 kts 156°
2026-05-05 22:33 -23.07772 -77.61386 36944 ft 555 kts 157°
2026-05-05 22:33 -23.14586 -77.57514 36943 ft 556 kts 157°
2026-05-05 22:34 -23.21478 -77.53590 36971 ft 555 kts 157°
2026-05-05 22:34 -23.28290 -77.49705 36979 ft 556 kts 157°
2026-05-05 22:35 -23.35153 -77.45792 36978 ft 557 kts 157°
2026-05-05 22:35 -23.42023 -77.41869 36983 ft 557 kts 157°
2026-05-05 22:36 -23.48905 -77.37933 36985 ft 558 kts 157°
2026-05-05 22:36 -23.55786 -77.33994 36980 ft 558 kts 157°
2026-05-05 22:37 -23.62653 -77.30058 36985 ft 558 kts 157°
2026-05-05 22:37 -23.69477 -77.26141 36990 ft 558 kts 157°
2026-05-05 22:38 -23.76342 -77.22198 36990 ft 557 kts 157°
2026-05-05 22:38 -23.83205 -77.18251 36989 ft 558 kts 157°
2026-05-05 22:39 -23.90081 -77.14288 36983 ft 558 kts 157°
2026-05-05 22:39 -23.96958 -77.10322 36983 ft 557 kts 157°
2026-05-05 22:40 -24.03765 -77.06391 36954 ft 556 kts 158°
2026-05-05 22:40 -24.10632 -77.02422 36956 ft 559 kts 158°
2026-05-05 22:41 -24.17507 -76.98445 36962 ft 559 kts 158°
2026-05-05 22:41 -24.24387 -76.94458 36962 ft 559 kts 158°
2026-05-05 22:42 -24.31263 -76.90467 36962 ft 559 kts 158°
2026-05-05 22:42 -24.38139 -76.86472 36962 ft 559 kts 157°
2026-05-05 22:43 -24.45015 -76.82472 36962 ft 559 kts 157°
2026-05-05 22:43 -24.51890 -76.78470 36962 ft 559 kts 158°
2026-05-05 22:44 -24.58741 -76.74477 36962 ft 560 kts 158°
2026-05-05 22:44 -24.65627 -76.70456 36962 ft 560 kts 157°
2026-05-05 22:45 -24.72512 -76.66431 36961 ft 560 kts 158°
2026-05-05 22:45 -24.79390 -76.62404 36962 ft 560 kts 158°
2026-05-05 22:46 -24.86256 -76.58423 36961 ft 560 kts 158°
2026-05-05 22:46 -24.93167 -76.54436 36962 ft 560 kts 158°
2026-05-05 22:47 -25.00070 -76.50445 36962 ft 560 kts 158°
2026-05-05 22:47 -25.06975 -76.46442 36962 ft 561 kts 158°
2026-05-05 22:48 -25.13901 -76.42418 36962 ft 562 kts 158°
2026-05-05 22:48 -25.20786 -76.38415 36962 ft 562 kts 158°
2026-05-05 22:49 -25.27715 -76.34382 36962 ft 562 kts 158°
2026-05-05 22:49 -25.33471 -76.31025 36962 ft 562 kts 158°
2026-05-05 22:50 -25.40395 -76.26982 36962 ft 563 kts 158°
2026-05-05 22:50 -25.47337 -76.22924 36962 ft 563 kts 158°
2026-05-05 22:51 -25.54234 -76.18888 36962 ft 564 kts 158°
2026-05-05 22:51 -25.61178 -76.14820 36962 ft 565 kts 159°
2026-05-05 22:52 -25.68113 -76.10749 36962 ft 564 kts 159°
2026-05-05 22:52 -25.75058 -76.06668 36962 ft 565 kts 159°
2026-05-05 22:53 -25.81998 -76.02584 36962 ft 565 kts 159°
2026-05-05 22:53 -25.88958 -75.98484 36962 ft 565 kts 159°
2026-05-05 22:54 -25.95907 -75.94385 36962 ft 565 kts 159°
2026-05-05 22:54 -26.02812 -75.90304 36962 ft 565 kts 159°
2026-05-05 22:55 -26.09767 -75.86189 36962 ft 565 kts 159°
2026-05-05 22:55 -26.16726 -75.82068 36962 ft 565 kts 159°
2026-05-05 22:56 -26.23671 -75.77950 36962 ft 565 kts 159°
2026-05-05 22:56 -26.30569 -75.73851 36961 ft 565 kts 159°
2026-05-05 22:57 -26.37505 -75.69726 36962 ft 564 kts 159°
2026-05-05 22:57 -26.44427 -75.65602 36962 ft 563 kts 159°
2026-05-05 22:58 -26.51336 -75.61482 36962 ft 564 kts 159°
2026-05-05 22:58 -26.58265 -75.57346 36962 ft 564 kts 159°
2026-05-05 22:59 -26.65184 -75.53208 36962 ft 563 kts 159°
2026-05-05 22:59 -26.72094 -75.49070 36962 ft 563 kts 159°
2026-05-05 23:00 -26.82413 -75.42880 36962 ft 563 kts 159°
2026-05-05 23:00 -26.89313 -75.38734 36962 ft 563 kts 159°
2026-05-05 23:01 -26.96221 -75.34578 36961 ft 562 kts 159°
2026-05-05 23:01 -27.03098 -75.30430 36962 ft 562 kts 159°
2026-05-05 23:02 -27.09983 -75.26274 36962 ft 562 kts 159°
2026-05-05 23:02 -27.16875 -75.22111 36962 ft 562 kts 159°
2026-05-05 23:03 -27.23755 -75.17946 36962 ft 561 kts 159°
2026-05-05 23:03 -27.30602 -75.13798 36979 ft 562 kts 159°
2026-05-05 23:04 -27.37499 -75.09612 36985 ft 562 kts 159°
2026-05-05 23:04 -27.44388 -75.05424 37008 ft 563 kts 159°
2026-05-05 23:05 -27.51284 -75.01229 37008 ft 563 kts 159°
2026-05-05 23:05 -27.58180 -74.97024 37008 ft 563 kts 159°
2026-05-05 23:06 -27.65036 -74.92841 37009 ft 564 kts 159°
2026-05-05 23:06 -27.71946 -74.88618 37008 ft 564 kts 159°
2026-05-05 23:07 -27.78850 -74.84387 37008 ft 564 kts 159°
2026-05-05 23:07 -27.85763 -74.80149 37008 ft 565 kts 159°
2026-05-05 23:08 -27.92671 -74.75907 37008 ft 565 kts 159°
2026-05-05 23:08 -27.99582 -74.71660 37017 ft 566 kts 159°
2026-05-05 23:09 -28.06455 -74.67428 37017 ft 566 kts 159°
2026-05-05 23:09 -28.13384 -74.63156 37217 ft 568 kts 159°
2026-05-05 23:10 -28.16861 -74.61010 37406 ft 568 kts 159°
2026-05-05 23:10 -28.20337 -74.58863 37562 ft 569 kts 159°
2026-05-05 23:10 -28.23821 -74.56710 37748 ft 570 kts 159°
2026-05-05 23:10 -28.27317 -74.54547 37920 ft 571 kts 159°
2026-05-05 23:11 -28.30806 -74.52386 38098 ft 571 kts 159°
2026-05-05 23:11 -28.34295 -74.50223 38255 ft 572 kts 159°
2026-05-05 23:11 -28.37797 -74.48050 38424 ft 572 kts 159°
2026-05-05 23:11 -28.41300 -74.45876 38568 ft 573 kts 159°
2026-05-05 23:12 -28.44797 -74.43704 38704 ft 574 kts 159°
2026-05-05 23:12 -28.48300 -74.41527 38849 ft 574 kts 159°
2026-05-05 23:12 -28.51811 -74.39341 38980 ft 575 kts 159°
2026-05-05 23:12 -28.55263 -74.37111 39018 ft 578 kts 157°
2026-05-05 23:13 -28.62174 -74.32438 39017 ft 577 kts 156°
2026-05-05 23:13 -28.69060 -74.27743 39016 ft 576 kts 156°
2026-05-05 23:14 -28.75941 -74.23093 39016 ft 575 kts 157°
2026-05-05 23:14 -28.82828 -74.18460 39017 ft 574 kts 157°
2026-05-05 23:15 -28.89714 -74.13826 39012 ft 574 kts 157°
2026-05-05 23:15 -28.96593 -74.09187 39019 ft 574 kts 157°
2026-05-05 23:16 -29.03421 -74.04573 39018 ft 573 kts 157°
2026-05-05 23:16 -29.10292 -73.99924 39010 ft 573 kts 156°
2026-05-05 23:17 -29.17153 -73.95272 39026 ft 572 kts 157°
2026-05-05 23:17 -29.19651 -73.93577 39026 ft 571 kts 157°
2026-05-05 23:18 -29.26068 -73.89217 39026 ft 569 kts 157°
2026-05-05 23:18 -29.32887 -73.84580 39027 ft 569 kts 157°
2026-05-05 23:19 -29.39694 -73.79943 39027 ft 570 kts 156°
2026-05-05 23:19 -29.46512 -73.75292 39029 ft 570 kts 156°
2026-05-05 23:20 -29.53335 -73.70629 39027 ft 570 kts 156°
2026-05-05 23:20 -29.60092 -73.66001 39026 ft 569 kts 156°
2026-05-05 23:21 -29.66910 -73.61325 39026 ft 569 kts 156°
2026-05-05 23:21 -29.73720 -73.56648 39028 ft 569 kts 156°
2026-05-05 23:22 -29.80520 -73.51971 39027 ft 569 kts 156°
2026-05-05 23:22 -29.87325 -73.47283 39027 ft 569 kts 156°
2026-05-05 23:23 -29.94083 -73.42619 39028 ft 569 kts 156°
2026-05-05 23:23 -30.00869 -73.37927 39036 ft 568 kts 156°
2026-05-05 23:24 -30.07659 -73.33227 39036 ft 568 kts 156°
2026-05-05 23:24 -30.14442 -73.28523 39045 ft 569 kts 156°
2026-05-05 23:25 -30.21219 -73.23814 39044 ft 568 kts 156°
2026-05-05 23:25 -30.27996 -73.19100 39044 ft 568 kts 156°
2026-05-05 23:26 -30.34763 -73.14388 39045 ft 568 kts 156°
2026-05-05 23:26 -30.41539 -73.09658 39044 ft 568 kts 156°
2026-05-05 23:27 -30.48265 -73.04953 39044 ft 567 kts 156°
2026-05-05 23:27 -30.55026 -73.00220 39044 ft 568 kts 156°
2026-05-05 23:28 -30.61783 -72.95481 39044 ft 567 kts 156°
2026-05-05 23:28 -30.68551 -72.90731 39045 ft 568 kts 156°
2026-05-05 23:29 -30.75325 -72.85961 39045 ft 568 kts 156°
2026-05-05 23:29 -30.82090 -72.81190 39045 ft 568 kts 156°
2026-05-05 23:30 -30.87704 -72.77227 39045 ft 568 kts 156°
2026-05-05 23:30 -30.95561 -72.71670 39046 ft 568 kts 156°
2026-05-05 23:31 -31.02311 -72.66888 39045 ft 567 kts 156°
2026-05-05 23:31 -31.09093 -72.62190 39045 ft 565 kts 158°
2026-05-05 23:32 -31.15927 -72.57659 39045 ft 564 kts 158°
2026-05-05 23:32 -31.22763 -72.53127 39045 ft 565 kts 158°
2026-05-05 23:33 -31.29552 -72.48579 39045 ft 565 kts 158°
2026-05-05 23:33 -31.36371 -72.43982 39045 ft 565 kts 158°
2026-05-05 23:34 -31.43170 -72.39389 39043 ft 562 kts 158°
2026-05-05 23:34 -31.49889 -72.34839 39044 ft 553 kts 158°
2026-05-05 23:35 -31.56502 -72.30362 39045 ft 551 kts 158°
2026-05-05 23:35 -31.63138 -72.25869 39045 ft 550 kts 158°
2026-05-05 23:36 -31.68692 -72.22101 39046 ft 550 kts 158°
2026-05-05 23:36 -31.75243 -72.17642 39009 ft 538 kts 158°
2026-05-05 23:37 -31.78453 -72.15444 38753 ft 532 kts 158°
2026-05-05 23:37 -31.81668 -72.13252 38150 ft 535 kts 158°
2026-05-05 23:37 -31.84893 -72.11058 37614 ft 536 kts 158°
2026-05-05 23:37 -31.88117 -72.08862 37091 ft 535 kts 157°
2026-05-05 23:38 -31.91347 -72.06658 36546 ft 535 kts 157°
2026-05-05 23:38 -31.94560 -72.04463 36020 ft 534 kts 157°
2026-05-05 23:38 -31.97779 -72.02260 35445 ft 534 kts 156°
2026-05-05 23:38 -32.00990 -72.00062 34859 ft 534 kts 156°
2026-05-05 23:39 -32.04206 -71.97858 34177 ft 536 kts 156°
2026-05-05 23:39 -32.07436 -71.95643 33446 ft 538 kts 156°
2026-05-05 23:39 -32.10674 -71.93422 32634 ft 541 kts 155°
2026-05-05 23:39 -32.13902 -71.91207 31761 ft 544 kts 155°
2026-05-05 23:40 -32.17183 -71.88951 30854 ft 547 kts 155°
2026-05-05 23:40 -32.20477 -71.86684 29933 ft 549 kts 155°
2026-05-05 23:40 -32.23764 -71.84421 29263 ft 545 kts 155°
2026-05-05 23:40 -32.27029 -71.82167 28631 ft 540 kts 154°
2026-05-05 23:41 -32.30257 -71.79931 28024 ft 535 kts 154°
2026-05-05 23:41 -32.33453 -71.77715 27413 ft 530 kts 154°
2026-05-05 23:41 -32.36616 -71.75522 26812 ft 524 kts 154°
2026-05-05 23:41 -32.39744 -71.73354 26216 ft 519 kts 154°
2026-05-05 23:42 -32.42841 -71.71206 25612 ft 513 kts 154°
2026-05-05 23:42 -32.45901 -71.69083 25026 ft 507 kts 154°
2026-05-05 23:42 -32.48931 -71.66980 24429 ft 501 kts 154°
2026-05-05 23:42 -32.51925 -71.64900 23839 ft 496 kts 153°
2026-05-05 23:43 -32.54891 -71.62839 23243 ft 491 kts 153°
2026-05-05 23:43 -32.57778 -71.60831 22685 ft 485 kts 153°
2026-05-05 23:43 -32.60683 -71.58808 22092 ft 481 kts 153°
2026-05-05 23:43 -32.63557 -71.56805 21516 ft 476 kts 153°
2026-05-05 23:44 -32.66397 -71.54826 20955 ft 470 kts 152°
2026-05-05 23:44 -32.69205 -71.52866 20374 ft 465 kts 152°
2026-05-05 23:44 -32.71839 -71.50664 19813 ft 463 kts 139°
2026-05-05 23:44 -32.73919 -71.47777 19257 ft 459 kts 121°
2026-05-05 23:45 -32.75346 -71.44428 18687 ft 452 kts 111°
2026-05-05 23:45 -32.76446 -71.40953 18156 ft 446 kts 106°
2026-05-05 23:45 -32.77371 -71.37460 17613 ft 440 kts 104°
2026-05-05 23:45 -32.78216 -71.33994 17085 ft 435 kts 103°
2026-05-05 23:46 -32.79037 -71.30605 16563 ft 429 kts 103°
2026-05-05 23:46 -32.79875 -71.27237 16051 ft 420 kts 104°
2026-05-05 23:46 -32.80717 -71.23930 15539 ft 416 kts 104°
2026-05-05 23:46 -32.81562 -71.20652 15020 ft 412 kts 105°
2026-05-05 23:47 -32.82410 -71.17411 14499 ft 408 kts 105°
2026-05-05 23:47 -32.83255 -71.14200 14009 ft 404 kts 105°
2026-05-05 23:47 -32.84089 -71.11036 13494 ft 399 kts 105°
2026-05-05 23:47 -32.84915 -71.07901 12991 ft 395 kts 105°
2026-05-05 23:48 -32.85733 -71.04793 12495 ft 391 kts 105°
2026-05-05 23:48 -32.86541 -71.01714 11979 ft 388 kts 105°
2026-05-05 23:48 -32.87344 -70.98683 11510 ft 383 kts 106°
2026-05-05 23:48 -32.88128 -70.95715 11023 ft 378 kts 106°
2026-05-05 23:49 -32.88899 -70.92764 10769 ft 366 kts 105°
2026-05-05 23:49 -32.89632 -70.89931 10637 ft 351 kts 105°
2026-05-05 23:49 -32.90340 -70.87202 10524 ft 338 kts 105°
2026-05-05 23:49 -32.91188 -70.84648 10380 ft 328 kts 119°
2026-05-05 23:50 -32.92641 -70.82620 10225 ft 318 kts 143°
2026-05-05 23:50 -32.94605 -70.81556 10006 ft 309 kts 171°
2026-05-05 23:50 -32.96734 -70.81461 9664 ft 305 kts 184°
2026-05-05 23:50 -32.98849 -70.81630 9333 ft 303 kts 186°
2026-05-05 23:51 -33.00952 -70.81802 9027 ft 302 kts 185°
2026-05-05 23:51 -33.03041 -70.81912 8702 ft 300 kts 183°
2026-05-05 23:51 -33.05129 -70.81957 8372 ft 299 kts 181°
2026-05-05 23:51 -33.07175 -70.81933 8055 ft 297 kts 179°
2026-05-05 23:52 -33.09262 -70.81846 7723 ft 295 kts 179°
2026-05-05 23:52 -33.11310 -70.81739 7403 ft 293 kts 178°
2026-05-05 23:52 -33.13311 -70.81630 7092 ft 292 kts 178°
2026-05-05 23:52 -33.15334 -70.81524 6765 ft 290 kts 178°
2026-05-05 23:53 -33.17346 -70.81423 6439 ft 287 kts 178°
2026-05-05 23:53 -33.19333 -70.81324 6120 ft 286 kts 179°
2026-05-05 23:53 -33.21305 -70.81224 5915 ft 279 kts 179°
2026-05-05 23:53 -33.23214 -70.81123 5772 ft 270 kts 178°
2026-05-05 23:54 -33.25054 -70.81021 5616 ft 259 kts 178°
2026-05-05 23:54 -33.26833 -70.80924 5107 ft 256 kts 178°
2026-05-05 23:54 -33.28617 -70.80807 4330 ft 255 kts 176°
2026-05-05 23:54 -33.30364 -70.80696 3564 ft 247 kts 178°
2026-05-05 23:55 -33.32059 -70.80640 2836 ft 240 kts 180°
2026-05-05 23:55 -33.33684 -70.80583 2242 ft 227 kts 178°
2026-05-05 23:55 -33.35197 -70.80514 1891 ft 207 kts 176°
2026-05-05 23:55 -33.36534 -70.80398 1731 ft 180 kts 176°
2026-05-05 23:56 -33.37717 -70.80343 1590 ft 161 kts 176°
2026-05-05 23:56 -33.38622 -70.80297 1578 ft 95 kts 177°
2026-05-05 23:56 -33.38993 -70.80278 1578 ft 26 kts 178°
2026-05-05 23:56 -33.39171 -70.80267 1577 ft 24 kts 174°
2026-05-05 23:57 -33.39324 -70.80202 1576 ft 19 kts 150°
2026-05-05 23:57 -33.39434 -70.80122 1572 ft 15 kts 147°
2026-05-05 23:57 -33.39461 -70.80101 1571 ft 0 kts 147°
2026-05-05 23:58 -33.39497 -70.80064 1570 ft 11 kts 132°
2026-05-05 23:59 -33.39529 -70.79969 1569 ft 13 kts 95°
2026-05-05 23:59 -33.39527 -70.79848 1569 ft 16 kts 89°
2026-05-05 23:59 -33.39524 -70.79736 1569 ft 10 kts 90°
2026-05-05 23:59 -33.39542 -70.79709 1569 ft 2 kts 156°
2026-05-06 00:00 -33.39576 -70.79700 1569 ft 4 kts 171°
2026-05-06 00:00 -33.39594 -70.79698 1569 ft 2 kts 175°
2026-05-06 00:00 -33.39597 -70.79697 1569 ft 0 kts 175°